TimeEDT,TemperatureF,Dew PointF,Humidity,Sea Level PressureIn,VisibilityMPH,Wind Direction,Wind SpeedMPH,Gust SpeedMPH,PrecipitationIn,Events,Conditions,WindDirDegrees,DateUTC
12:53 AM,75.0,72.0,90,29.99,10.0,Calm,Calm,-,N/A,,Partly Cloudy,0,2013-10-06 04:53:00
1:53 AM,75.0,73.0,94,29.99,10.0,Calm,Calm,-,N/A,,Partly Cloudy,0,2013-10-06 05:53:00
2:53 AM,75.0,73.0,94,29.97,10.0,Calm,Calm,-,N/A,,Partly Cloudy,0,2013-10-06 06:53:00
3:53 AM,73.9,73.0,97,29.96,10.0,North,3.5,-,N/A,,Partly Cloudy,360,2013-10-06 07:53:00
4:53 AM,73.0,72.0,96,29.94,10.0,Calm,Calm,-,N/A,,Partly Cloudy,0,2013-10-06 08:53:00
5:53 AM,73.9,72.0,93,29.95,10.0,Calm,Calm,-,N/A,,Partly Cloudy,0,2013-10-06 09:53:00
6:53 AM,73.0,72.0,96,29.96,10.0,Calm,Calm,-,N/A,,Partly Cloudy,0,2013-10-06 10:53:00
7:53 AM,73.9,72.0,93,29.97,10.0,Calm,Calm,-,N/A,,Partly Cloudy,0,2013-10-06 11:53:00
8:53 AM,78.1,73.9,87,29.98,10.0,Calm,Calm,-,N/A,,Partly Cloudy,0,2013-10-06 12:53:00
9:53 AM,82.0,73.0,74,29.98,10.0,SSE,5.8,-,N/A,,Partly Cloudy,160,2013-10-06 13:53:00
10:53 AM,84.0,72.0,67,29.98,10.0,SSE,5.8,-,N/A,,Scattered Clouds,150,2013-10-06 14:53:00
11:53 AM,84.9,71.1,63,29.98,10.0,ESE,6.9,-,N/A,,Scattered Clouds,120,2013-10-06 15:53:00
12:53 PM,88.0,71.1,57,29.95,10.0,SE,6.9,-,N/A,,Scattered Clouds,140,2013-10-06 16:53:00
1:53 PM,89.1,70.0,53,29.93,10.0,East,4.6,-,N/A,,Mostly Cloudy,100,2013-10-06 17:53:00
2:53 PM,89.1,71.1,55,29.90,10.0,Variable,5.8,-,N/A,,Scattered Clouds,0,2013-10-06 18:53:00
3:53 PM,87.1,72.0,61,29.88,10.0,East,5.8,-,N/A,,Mostly Cloudy,90,2013-10-06 19:53:00
4:53 PM,84.0,71.1,65,29.88,10.0,SE,10.4,-,0.00,Rain,Light Rain,130,2013-10-06 20:53:00
5:45 PM,77.0,71.6,83,29.90,10.0,East,10.4,-,0.07,Rain-Thunderstorm,Light Thunderstorms and Rain,90,2013-10-06 21:45:00
5:53 PM,75.9,73.0,91,29.89,9.0,East,11.5,-,0.07,Rain-Thunderstorm,Light Thunderstorms and Rain,80,2013-10-06 21:53:00
6:16 PM,78.8,73.4,83,29.90,10.0,East,6.9,-,0.00,,Overcast,90,2013-10-06 22:16:00
6:53 PM,79.0,73.9,84,29.91,10.0,ENE,4.6,-,0.00,,Overcast,70,2013-10-06 22:53:00
7:53 PM,77.0,73.9,90,29.91,10.0,NE,4.6,-,N/A,,Mostly Cloudy,50,2013-10-06 23:53:00
8:53 PM,77.0,73.0,88,29.92,10.0,ENE,3.5,-,N/A,,Mostly Cloudy,70,2013-10-07 00:53:00
9:53 PM,75.9,73.0,91,29.91,10.0,East,4.6,-,N/A,,Scattered Clouds,90,2013-10-07 01:53:00
10:53 PM,75.0,73.0,94,29.92,10.0,Calm,Calm,-,N/A,,Partly Cloudy,0,2013-10-07 02:53:00
11:53 PM,73.9,72.0,93,29.91,10.0,Calm,Calm,-,N/A,,Partly Cloudy,0,2013-10-07 03:53:00